Satellite: AO-40 Catalog number: 26609 Epoch time: 02359.53285880 Element set: 297 Inclination: 7.8593 deg RA of node: 74.3667 deg Eccentricity: 0.7931605 Arg of perigee: 126.0881 deg Mean anomaly: 333.9861 deg Mean motion: 1.25597577 rev/day Decay rate: -4.40000e-07 rev/day^2 Epoch rev: 989 Checksum: 352